Pensacola NAS, FL

6:45 PM CDT on July 20, 2017 (GMT -0500)
Pensacola Naval Air Station

Weather History for KNPA - March, 2013

Change the Weather History Date:

Saturday, March 23, 2013

  Actual Average Record
Temperature  
Mean Temperature 65 °F -  
Max Temperature 69 °F 68 °F 81 °F (2011)
Min Temperature 62 °F 50 °F 39 °F (2002)
Growing Degree Days 15 (Base 50)    
Moisture  
Dew Point 62 °F    
Average Humidity 92    
Maximum Humidity 100    
Minimum Humidity 60    
Precipitation  
Precipitation 0.09 in - - ()
Sea Level Pressure  
Sea Level Pressure 29.75 in    
Wind  
Wind Speed 10 mph (East)    
Max Wind Speed 16 mph    
Max Gust Speed -    
Visibility 8 miles    
Events Rain , Thunderstorm    
Averages and records for this station are not official NWS values.
T = Trace of Precipitation, MM = Missing Value Source: NWS Daily Summary

Daily Weather History Graph

Daily Weather History Graph

Search for Another Location

Airport or City:

Trip Planner

Search our weather history database for the weather conditions in past years. The results will help you decide how hot, cold, wet, or windy it might be!

Date:

Astronomy

Mar. 23, 2013 Rise Set
Actual Time 6:49 AM CDT 7:02 PM CDT
Civil Twilight 6:25 AM CDT 7:26 PM CDT
Nautical Twilight 5:57 AM CDT 7:54 PM CDT
Astronomical Twilight 5:28 AM CDT 8:23 PM CDT
Moon 3:41 PM CDT (3/23) 4:10 AM CDT (3/23)
Length of Visible Light 13h 01m
Length of Day
12h 13m
Waxing Gibbous, 85% of the Moon is Illuminated
Mar 23
Waxing Gibbous
Mar 27
Full
Apr 2
Last Quarter
Apr 10
New
Apr 18
First Quarter

Hourly Weather History & Observations

Time (CDT) Temp. Dew Point Humidity Pressure Visibility Wind Dir Wind Speed Gust Speed Precip Events Conditions
12:56 AM 63.0 °F 48.9 °F 60% 29.89 in 10.0 mi ESE 12.7 mph - N/A   Overcast
1:56 AM 63.0 °F 53.1 °F 70% 29.88 in 10.0 mi East 10.4 mph - N/A   Overcast
2:56 AM 63.0 °F 55.0 °F 75% 29.84 in 10.0 mi East 15.0 mph - 0.00 in Rain Light Rain
3:56 AM 63.0 °F 55.9 °F 78% 29.83 in 10.0 mi East 10.4 mph - 0.00 in   Overcast
4:56 AM 63.0 °F 57.9 °F 84% 29.83 in 10.0 mi East 10.4 mph - 0.00 in Rain Light Rain
5:03 AM 62.6 °F 57.2 °F 82% 29.82 in 10.0 mi East 11.5 mph - 0.00 in Rain Light Rain
5:56 AM 63.0 °F 59.0 °F 87% 29.83 in 10.0 mi East 9.2 mph - 0.00 in   Overcast
6:56 AM 63.0 °F 60.1 °F 90% 29.84 in 10.0 mi East 8.1 mph - 0.02 in   Overcast
7:56 AM 64.0 °F 61.0 °F 90% 29.84 in 8.0 mi East 11.5 mph - N/A   Overcast
8:52 AM 64.4 °F 62.6 °F 94% 29.84 in 8.0 mi East 9.2 mph - N/A   Overcast
8:56 AM 64.9 °F 62.1 °F 90% 29.84 in 8.0 mi ESE 9.2 mph - N/A   Overcast
9:07 AM 64.4 °F 62.6 °F 94% 29.83 in 8.0 mi ESE 10.4 mph - N/A   Overcast
9:56 AM 66.0 °F 63.0 °F 90% 29.83 in 7.0 mi ESE 10.4 mph - N/A   Overcast
10:56 AM 66.9 °F 64.0 °F 90% 29.83 in 5.0 mi East 8.1 mph - N/A   Overcast
11:56 AM 66.0 °F 64.0 °F 93% 29.83 in 3.0 mi East 8.1 mph - 0.00 in Rain Light Rain
12:20 PM 64.4 °F 64.4 °F 100% 29.82 in 2.0 mi NE 6.9 mph - 0.00 in   Overcast
12:50 PM 66.2 °F 64.4 °F 94% 29.78 in 3.0 mi NE 6.9 mph - 0.00 in Thunderstorm Overcast
12:56 PM 66.0 °F 64.0 °F 93% 29.79 in 3.0 mi East 8.1 mph - 0.00 in Thunderstorm Overcast
1:27 PM 64.4 °F 64.4 °F 100% 29.76 in 3.0 mi ENE 6.9 mph - 0.02 in Rain , Thunderstorm Light Thunderstorms and Rain
1:56 PM 66.0 °F 64.9 °F 96% 29.75 in 2.0 mi ENE 8.1 mph - 0.07 in Rain , Thunderstorm Thunderstorms and Rain
2:14 PM 66.2 °F 66.2 °F 100% 29.73 in 6.0 mi East 8.1 mph - 0.00 in   Overcast
2:56 PM 66.9 °F 64.9 °F 93% 29.76 in 10.0 mi North 8.1 mph - 0.00 in Thunderstorm Thunderstorm
3:18 PM 68.0 °F 66.2 °F 94% 29.74 in 10.0 mi NNE 3.5 mph - N/A   Overcast
3:56 PM 68.0 °F 66.0 °F 93% 29.73 in 10.0 mi East 6.9 mph - N/A   Overcast
4:40 PM 66.2 °F 64.4 °F 94% 29.71 in 10.0 mi East 8.1 mph - N/A   Overcast
4:56 PM 66.9 °F 64.0 °F 90% 29.71 in 10.0 mi East 5.8 mph - N/A   Overcast
5:30 PM 66.2 °F 64.4 °F 94% 29.70 in 10.0 mi East 6.9 mph - N/A   Overcast
5:56 PM 66.0 °F 64.0 °F 93% 29.69 in 10.0 mi East 8.1 mph - N/A   Overcast
6:33 PM 64.4 °F 64.4 °F 100% 29.69 in 10.0 mi East 11.5 mph - N/A   Overcast
6:47 PM 64.4 °F 64.4 °F 100% 29.68 in 10.0 mi East 8.1 mph - N/A   Overcast
6:56 PM 64.9 °F 63.0 °F 93% 29.68 in 10.0 mi East 12.7 mph - N/A   Overcast
7:11 PM 64.4 °F 62.6 °F 94% 29.67 in 8.0 mi East 9.2 mph - 0.00 in Rain Light Rain
7:47 PM 64.4 °F 62.6 °F 94% 29.67 in 10.0 mi East 6.9 mph - 0.00 in Rain Light Rain
7:56 PM 64.0 °F 63.0 °F 96% 29.68 in 9.0 mi East 9.2 mph - 0.00 in   Overcast
8:24 PM 64.4 °F 62.6 °F 94% 29.66 in 10.0 mi East 12.7 mph - 0.00 in Rain Light Rain
8:56 PM 64.0 °F 63.0 °F 96% 29.67 in 10.0 mi East 9.2 mph - 0.00 in   Overcast
9:07 PM 64.4 °F 62.6 °F 94% 29.66 in 10.0 mi ESE 9.2 mph - N/A   Overcast
9:15 PM 64.4 °F 62.6 °F 94% 29.66 in 10.0 mi ESE 8.1 mph - 0.00 in Rain Light Rain
9:56 PM 64.9 °F 64.0 °F 97% 29.65 in 10.0 mi ESE 16.1 mph - 0.00 in Rain Light Rain
10:56 PM 66.9 °F 66.0 °F 97% 29.64 in 8.0 mi SSE 9.2 mph - 0.00 in Rain Light Rain
11:29 PM 66.2 °F 66.2 °F 100% 29.62 in 7.0 mi South 8.1 mph - 0.00 in   Overcast
11:56 PM 68.0 °F 68.0 °F 100% 29.62 in 5.0 mi SSW 8.1 mph - 0.00 in Rain Light Rain